CDT,Max TemperatureF,Mean TemperatureF,Min TemperatureF,Max Dew PointF,MeanDew PointF,Min DewpointF,Max Humidity, Mean Humidity, Min Humidity, Max Sea Level PressureIn, Mean Sea Level PressureIn, Min Sea Level PressureIn, Max VisibilityMiles, Mean VisibilityMiles, Min VisibilityMiles, Max Wind SpeedMPH, Mean Wind SpeedMPH, Max Gust SpeedMPH,PrecipitationIn, CloudCover, Events, WindDirDegrees
2013-3-1,26,24,21,21,19,14,86,78,69,30.34,30.26,30.18,10,9,1,14,9,16,0.00,8,Snow,346
2013-3-2,28,24,19,19,16,14,86,76,64,30.35,30.28,30.15,10,10,10,12,5,,0.00,6,,17
2013-3-3,35,27,19,25,19,16,86,71,60,30.15,29.96,29.79,10,10,10,14,6,21,0.00,1,,141
2013-3-4,42,36,30,30,28,21,100,76,57,29.98,29.81,29.70,10,9,3,10,6,20,0.02,3,Rain,50
2013-3-5,32,28,23,28,19,16,93,72,64,30.36,30.15,29.97,10,10,5,26,15,38,0.00,7,Snow,313
2013-3-6,35,28,21,21,19,16,86,72,56,30.43,30.36,30.29,10,10,10,16,8,18,0.00,3,,38
2013-3-7,42,30,19,28,22,16,93,75,53,30.30,30.24,30.16,10,10,10,13,5,17,0.00,0,,133
2013-3-8,51,40,28,36,30,23,87,72,54,30.23,30.12,29.95,10,10,10,16,7,25,0.00,2,Rain,139
2013-3-9,48,44,39,46,42,36,100,94,87,29.94,29.73,29.60,10,7,0,17,10,28,0.11,7,Rain,154
2013-3-10,44,34,24,45,29,19,100,93,80,29.87,29.75,29.62,10,6,2,26,16,33,0.02,8,Rain-Snow,347
2013-3-11,30,26,21,21,20,16,93,82,64,29.99,29.89,29.82,10,9,2,17,12,24,0.00,5,Snow,306
2013-3-12,35,27,19,25,20,16,93,75,60,30.32,30.15,30.00,10,10,10,23,8,30,0.00,4,,301
2013-3-13,37,27,17,21,19,14,93,72,48,30.45,30.37,30.29,10,10,10,9,5,,0.00,1,,300
2013-3-14,59,42,26,41,30,21,100,68,47,30.28,30.12,30.07,10,10,5,9,5,,0.00,0,,253
2013-3-15,64,44,24,45,35,25,100,78,40,30.07,29.83,29.69,10,7,0,16,3,16,0.00,0,Fog,325
2013-3-16,37,32,26,36,27,21,100,82,75,30.17,30.03,29.80,10,9,4,22,14,28,0.00,7,,6
2013-3-17,42,32,23,30,24,19,93,73,53,30.15,29.97,29.79,10,10,2,15,10,18,0.00,4,,98
2013-3-18,39,28,17,30,23,14,100,74,41,30.04,29.87,29.75,10,8,1,29,8,41,0.11,3,Rain-Snow,290
2013-3-19,46,32,17,28,16,10,86,58,31,30.28,30.15,30.03,10,10,10,17,5,23,0.00,1,,306
2013-3-20,32,23,12,18,8,3,86,58,32,30.39,30.28,30.13,10,10,10,17,11,26,0.00,0,,332
2013-3-21,33,22,12,16,11,9,92,60,35,30.12,30.02,29.92,10,10,10,9,3,,0.00,4,,107
2013-3-22,33,28,24,19,17,14,74,60,48,30.04,30.00,29.96,10,10,10,8,4,,0.00,7,,75
2013-3-23,37,32,26,27,23,19,100,77,52,30.10,30.04,30.00,10,8,0,16,6,20,0.01,7,Snow,28
2013-3-24,28,24,21,25,21,19,93,85,69,30.04,29.99,29.96,10,7,2,23,14,30,0.00,7,Snow,334
2013-3-25,30,26,23,23,21,19,93,81,69,30.32,30.16,30.03,10,8,2,17,13,25,0.00,6,Snow,319
2013-3-26,37,26,15,21,19,14,93,75,48,30.38,30.32,30.26,10,10,10,9,5,,0.00,2,,303
2013-3-27,48,32,15,32,24,16,100,72,45,30.31,30.27,30.20,10,10,10,12,3,,0.00,2,,132
2013-3-28,59,40,21,36,28,21,100,68,34,30.27,30.22,30.16,10,10,7,7,1,,0.00,1,,114
2013-3-29,66,44,23,37,29,21,100,59,23,30.24,30.17,30.07,10,9,5,12,3,16,0.00,0,,145
2013-3-30,66,52,39,52,42,32,100,74,42,30.10,29.96,29.85,10,10,4,16,6,25,0.17,3,Rain,199
2013-3-31,57,42,28,39,31,19,100,64,25,30.11,29.97,29.93,10,9,1,22,6,31,0.02,1,Rain,338